1513666801.16,3822,5.75,73260.8,-15.69,-48.83,-49.25,0,*5D
1513666802.4,3823,5.75,73260.8,-15.71,-48.83,-49.11,0,*52
1513666803.67,3824,5.69,73256.3,-15.69,-48.69,-49.05,0,*5D
1513666804.93,3825,5.75,73260.8,-15.71,-48.69,-48.91,0,*59
1513666806.14,3826,5.75,73260.0,-15.71,-48.83,-49.05,0,*52
1513666807.38,3827,5.75,73260.5,-15.71,-48.69,-49.05,0,*57
1513666808.63,3828,5.75,73260.5,-15.71,-48.69,-49.05,0,*58
1513666809.87,3829,5.75,73262.5,-15.71,-48.69,-49.05,0,*59
1513666811.14,3830,5.75,73264.5,-15.71,-48.69,-48.91,0,*5D
1513666812.4,3831,5.75,73260.8,-15.71,-48.69,-48.91,0,*5C
1513666813.69,3832,5.75,73264.3,-15.73,-48.77,-49.11,0,*5B
1513666814.98,3833,5.75,73260.5,-15.73,-48.77,-49.19,0,*52
1513666816.28,3834,5.75,73266.3,-15.73,-48.69,-49.11,0,*52
1513666817.51,3835,5.75,73262.8,-15.75,-48.77,-48.97,0,*55
1513666818.76,3836,5.75,73264.8,-15.75,-48.91,-49.19,0,*59
1513666820.03,3837,5.75,73264.3,-15.75,-48.69,-49.11,0,*57
1513666821.26,3838,5.75,73260.8,-15.75,-48.77,-48.97,0,*58
1513666822.49,3839,5.75,73260.3,-15.75,-48.91,-48.97,0,*51
1513666823.74,3840,5.75,73260.3,-15.75,-48.77,-49.19,0,*50
1513666825.01,3841,5.75,73262.0,-15.75,-48.77,-49.11,0,*59
1513666826.23,3842,5.75,73260.3,-15.75,-48.77,-48.97,0,*55
1513666827.5,3843,5.75,73262.3,-15.75,-48.91,-49.11,0,*53
1513666828.75,3844,5.75,73262.5,-15.75,-48.77,-49.19,0,*54
1513666830.02,3845,5.75,73262.0,-15.75,-48.77,-49.11,0,*5D
1513666831.25,3846,5.75,73260.5,-15.75,-48.77,-48.97,0,*51
1513666832.47,3847,5.75,73262.5,-15.75,-48.91,-48.97,0,*58
1513666833.77,3848,5.75,73260.3,-15.77,-48.77,-49.11,0,*52
1513666835.0,3849,5.75,73262.0,-15.81,-48.97,-49.05,0,*51
1513666836.28,3850,5.75,73262.0,-15.77,-48.77,-49.19,0,*53
1513666837.55,3851,5.75,73262.0,-15.77,-48.69,-48.97,0,*5A
1513666838.8,3852,5.75,73260.3,-15.81,-48.83,-49.19,0,*53
1513666840.05,3853,5.75,73264.0,-15.81,-48.83,-49.19,0,*52
1513666841.29,3854,5.75,73262.3,-15.81,-48.83,-49.05,0,*58
1513666842.57,3855,5.75,73260.8,-15.81,-48.77,-49.19,0,*5F
1513666843.8,3856,5.75,73266.0,-15.81,-48.83,-48.97,0,*50
1513666845.03,3857,5.75,73262.5,-15.81,-48.97,-49.05,0,*5E
1513666846.29,3858,5.75,73260.5,-15.81,-48.77,-48.97,0,*55
1513666847.52,3859,5.75,73264.0,-15.81,-48.83,-49.05,0,*55
1513666848.76,3860,5.75,73262.8,-15.81,-48.83,-49.05,0,*5F
1513666849.96,3861,5.75,73260.0,-15.83,-48.83,-49.05,0,*5C
1513666851.23,3862,5.75,73264.3,-15.83,-48.91,-49.11,0,*59
1513666852.52,3863,5.75,73264.8,-15.85,-48.77,-49.11,0,*56
1513666853.73,3864,5.75,73260.5,-15.83,-48.83,-49.05,0,*59
1513666855.02,3865,5.75,73262.8,-15.85,-48.77,-49.11,0,*50
1513666856.26,3866,5.75,73262.5,-15.83,-48.83,-49.11,0,*5E
1513666857.49,3867,5.69,73256.0,-15.83,-48.91,-49.33,0,*5C
1513666858.73,3868,5.75,73260.8,-15.85,-48.83,-49.05,0,*53
1513666859.94,3869,5.75,73260.0,-15.83,-48.83,-48.83,0,*5B
1513666861.19,3870,5.75,73260.3,-15.83,-48.77,-48.91,0,*5B
1513666862.43,3871,5.75,73266.5,-15.85,-48.83,-49.05,0,*5B
1513666863.7,3872,5.75,73264.3,-15.85,-48.77,-49.05,0,*53
1513666864.99,3873,5.75,73262.0,-15.85,-48.91,-49.11,0,*5F
1513666866.25,3874,5.75,73258.5,-15.85,-48.83,-49.11,0,*5B
1513666867.53,3875,5.75,73264.0,-15.89,-48.91,-49.19,0,*5D
1513666868.77,3876,5.75,73260.5,-15.91,-48.83,-49.11,0,*5C
1513666870.03,3877,5.75,73264.3,-15.85,-48.77,-49.05,0,*56
1513666871.33,3878,5.75,73262.3,-15.85,-48.77,-49.11,0,*5C
1513666872.55,3879,5.75,73258.8,-15.89,-48.83,-48.97,0,*55
1513666873.79,3880,5.75,73260.0,-15.91,-48.83,-49.11,0,*55
1513666875.02,3881,5.75,73260.8,-15.91,-48.83,-49.11,0,*54
1513666876.26,3882,5.75,73262.8,-15.91,-48.69,-48.97,0,*5C
1513666877.49,3883,5.75,73262.8,-15.91,-48.69,-48.97,0,*5D
1513666878.76,3884,5.75,73260.8,-15.93,-48.91,-49.05,0,*55
1513666880.01,3885,5.75,73260.3,-15.91,-48.91,-49.19,0,*5B
1513666881.27,3886,5.75,73262.5,-15.93,-48.91,-48.97,0,*5D
1513666882.54,3887,5.75,73262.3,-15.93,-48.77,-49.05,0,*5E
1513666883.8,3888,5.75,73260.3,-15.93,-48.91,-49.05,0,*59
1513666885.06,3889,5.75,73262.0,-15.93,-48.91,-49.05,0,*58
1513666886.3,3890,5.75,73262.0,-15.95,-48.77,-49.05,0,*5E
1513666887.59,3891,5.75,73260.5,-15.93,-48.77,-48.91,0,*55
1513666888.82,3892,5.75,73264.8,-15.93,-48.55,-48.97,0,*50
1513666890.09,3893,5.75,73262.8,-15.93,-48.69,-49.05,0,*54
1513666891.32,3894,5.75,73266.0,-15.95,-48.91,-48.97,0,*58
1513666892.56,3895,5.69,73260.0,-15.95,-48.69,-49.05,0,*54
1513666893.82,3896,5.75,73260.0,-15.95,-48.91,-48.91,0,*5C
1513666895.05,3897,5.69,73256.8,-15.95,-48.97,-49.19,0,*5A
1513666896.26,3898,5.75,73262.5,-15.95,-48.97,-49.25,0,*5A
1513666897.49,3899,5.75,73262.0,-15.97,-49.05,-49.25,0,*53
1513666898.75,3900,5.75,73264.5,-15.97,-48.83,-49.11,0,*5A
1513666900.01,3901,5.75,73262.5,-15.97,-48.83,-49.11,0,*5B
1513666901.24,3902,5.75,73262.0,-15.97,-48.97,-49.05,0,*58
1513666902.51,3903,5.75,73264.8,-15.97,-49.05,-49.11,0,*56
1513666903.72,3904,5.75,73266.8,-15.99,-48.97,-49.05,0,*50
1513666904.92,3905,5.75,73264.3,-15.99,-48.83,-48.97,0,*5E
1513666906.16,3906,5.75,73262.5,-15.99,-48.77,-48.83,0,*53
1513666907.36,3907,5.75,73266.8,-15.99,-48.55,-48.97,0,*57
1513666908.6,3908,5.75,73264.8,-15.99,-48.77,-48.97,0,*58
1513666909.81,3909,5.75,73260.8,-15.99,-48.83,-49.05,0,*58
1513666911.07,3910,5.75,73266.5,-15.97,-48.77,-48.83,0,*5A
1513666912.3,3911,5.75,73264.3,-15.99,-48.77,-48.97,0,*50
1513666913.56,3912,5.75,73266.3,-15.97,-48.77,-48.97,0,*5D
1513666914.8,3913,5.75,73260.8,-15.99,-48.77,-49.05,0,*58
1513666916.04,3914,5.75,73266.8,-15.99,-48.77,-49.05,0,*5F
1513666917.29,3915,5.75,73264.8,-15.97,-48.77,-48.97,0,*5A
1513666918.53,3916,5.75,73266.3,-15.99,-48.83,-49.11,0,*53
1513666919.77,3917,5.75,73262.3,-15.99,-48.77,-49.05,0,*5C
1513666921.03,3918,5.75,73266.3,-16.01,-48.91,-49.05,0,*59
1513666922.26,3919,5.75,73266.8,-16.01,-48.83,-49.05,0,*5B
1513666923.52,3920,5.75,73264.5,-16.01,-48.83,-49.19,0,*5C
1513666924.8,3921,5.75,73260.5,-16.01,-48.91,-49.11,0,*56
1513666926.08,3922,5.75,73264.5,-16.01,-48.91,-49.19,0,*5D
1513666927.37,3923,5.75,73266.0,-16.05,-48.91,-49.11,0,*50
1513666928.63,3924,5.75,73266.0,-16.01,-48.83,-49.11,0,*50
1513666929.9,3925,5.75,73264.0,-16.05,-48.91,-49.19,0,*5E
1513666931.19,3926,5.75,73264.0,-16.05,-48.91,-49.11,0,*55
1513666932.45,3927,5.75,73262.5,-16.05,-48.83,-49.11,0,*57
1513666933.7,3928,5.75,73266.3,-16.05,-48.83,-49.11,0,*58
1513666934.96,3929,5.75,73260.5,-16.05,-49.05,-49.11,0,*56
1513666936.2,3930,5.75,73264.3,-16.05,-48.83,-49.05,0,*54
1513666937.42,3931,5.75,73262.8,-16.07,-48.91,-48.97,0,*5E
1513666938.65,3932,5.75,73260.8,-16.07,-48.97,-49.19,0,*5C
1513666939.88,3933,5.75,73264.5,-16.05,-48.83,-49.05,0,*57
1513666941.15,3934,5.75,73266.3,-16.07,-48.91,-49.11,0,*54
1513666942.38,3935,5.75,73262.0,-16.07,-48.97,-49.19,0,*5B
1513666943.67,3936,5.75,73266.0,-16.09,-48.91,-49.11,0,*58
1513666944.93,3937,5.75,73266.8,-16.09,-48.97,-49.11,0,*5F
1513666946.16,3938,5.75,73268.3,-16.07,-48.97,-49.11,0,*5E
1513666947.43,3939,5.75,73266.8,-16.07,-48.91,-49.11,0,*59
1513666948.66,3940,5.75,73264.5,-16.09,-48.97,-49.25,0,*58
1513666949.89,3941,5.75,73268.8,-16.07,-48.97,-49.19,0,*58
1513666951.17,3942,5.75,73268.8,-16.09,-48.91,-49.11,0,*5B
1513666952.43,3943,5.75,73266.0,-16.09,-48.77,-48.97,0,*5D
1513666953.72,3944,5.75,73264.5,-16.09,-48.77,-49.11,0,*55
1513666954.93,3945,5.75,73264.0,-16.11,-48.97,-49.05,0,*56
1513666956.14,3946,5.75,73266.3,-16.11,-48.97,-49.05,0,*55
1513666957.34,3947,5.75,73264.3,-16.11,-48.83,-49.05,0,*51
1513666958.57,3948,5.75,73264.8,-16.11,-48.97,-49.19,0,*56
1513666959.8,3949,5.75,73268.0,-16.11,-48.97,-49.19,0,*57
1513666961.03,3950,5.75,73266.3,-16.11,-48.97,-49.19,0,*5F
1513666962.29,3951,5.75,73266.0,-16.13,-48.77,-49.05,0,*5F
1513666963.5,3952,5.75,73264.8,-16.11,-48.97,-49.05,0,*50
1513666964.73,3953,5.75,73262.8,-16.13,-48.83,-49.05,0,*56
1513666965.94,3954,5.75,73262.8,-16.11,-48.97,-49.05,0,*56
1513666967.17,3955,5.75,73264.8,-16.11,-48.83,-49.19,0,*5F
1513666968.4,3956,5.75,73260.8,-16.13,-48.97,-49.05,0,*56
1513666969.66,3957,5.75,73266.5,-16.13,-48.97,-49.19,0,*5A
1513666970.94,3958,5.75,73264.5,-16.13,-48.77,-49.19,0,*5B
1513666972.17,3959,5.75,73264.0,-16.13,-48.83,-49.05,0,*5C
1513666973.43,3960,5.75,73262.8,-16.13,-48.77,-48.97,0,*57
1513666974.63,3961,5.75,73266.0,-16.11,-48.55,-48.97,0,*54
1513666975.86,3962,5.75,73266.3,-16.13,-48.83,-48.83,0,*5B
1513666977.13,3963,5.75,73266.0,-16.13,-48.77,-49.05,0,*5E
1513666978.36,3964,5.75,73264.0,-16.13,-48.83,-49.05,0,*52
1513666979.62,3965,5.75,73266.0,-16.13,-48.77,-48.97,0,*52
1513666980.85,3966,5.75,73264.0,-16.13,-48.55,-48.83,0,*54
1513666982.11,3967,5.75,73264.3,-16.13,-48.77,-48.97,0,*50
1513666983.37,3968,5.75,73264.8,-16.13,-48.77,-48.97,0,*5F
1513666984.6,3969,5.75,73266.8,-16.13,-48.55,-48.83,0,*5B
1513666985.84,3970,5.75,73266.8,-16.13,-48.63,-48.83,0,*56
1513666987.07,3971,5.75,73268.0,-16.13,-48.55,-48.83,0,*52
1513666988.29,3972,5.75,73270.3,-16.15,-48.49,-49.05,0,*55
1513666989.5,3973,5.75,73266.3,-16.15,-48.83,-49.05,0,*52
1513666990.75,3974,5.75,73264.8,-16.13,-48.77,-48.97,0,*52
1513666991.99,3975,5.75,73266.3,-16.15,-48.91,-49.05,0,*57
1513666993.2,3976,5.75,73264.8,-16.15,-48.83,-49.05,0,*57
1513666994.41,3977,5.75,73264.5,-16.15,-48.83,-49.05,0,*56
1513666995.64,3978,5.75,73260.0,-16.15,-48.91,-49.25,0,*58
1513666996.91,3979,5.75,73264.8,-16.15,-48.91,-49.11,0,*5E
1513666998.2,3980,5.75,73266.3,-16.17,-48.91,-49.11,0,*5A
1513666999.44,3981,5.75,73260.8,-16.15,-48.69,-49.05,0,*5B
1513667000.65,3982,5.75,73260.8,-16.15,-48.83,-49.05,0,*5C
1513667001.89,3983,5.75,73264.3,-16.15,-48.83,-49.11,0,*58
1513667003.15,3984,5.75,73266.5,-16.17,-48.63,-48.91,0,*5A
1513667004.39,3985,5.75,73266.0,-16.17,-48.63,-49.05,0,*57
1513667005.68,3986,5.75,73264.5,-16.17,-48.69,-48.91,0,*52
1513667006.94,3987,5.75,73264.8,-16.17,-48.63,-48.91,0,*59
1513667008.21,3988,5.75,73264.8,-16.17,-48.69,-49.05,0,*50
1513667009.45,3989,5.75,73266.8,-16.17,-48.83,-49.05,0,*55
1513667010.71,3990,5.75,73264.8,-16.17,-48.83,-49.11,0,*58
1513667011.97,3991,5.75,73266.0,-16.17,-48.63,-48.91,0,*5E
1513667013.18,3992,5.75,73268.0,-16.15,-48.63,-49.05,0,*53
1513667014.42,3993,5.75,73266.0,-16.17,-48.63,-49.05,0,*50
1513667015.66,3994,5.75,73264.8,-16.17,-48.63,-49.05,0,*57
1513667016.93,3995,5.75,73264.0,-16.19,-48.77,-49.11,0,*58
1513667018.2,3996,5.75,73260.5,-16.19,-48.77,-49.11,0,*5B
1513667019.47,3997,5.75,73264.8,-16.19,-48.77,-49.11,0,*5A
1513667020.71,3998,5.75,73264.5,-16.19,-48.91,-48.97,0,*52
1513667021.98,3999,5.75,73264.0,-16.19,-48.77,-49.11,0,*54
1513667023.25,4000,5.75,73264.3,-16.19,-48.91,-49.11,0,*52
1513667024.48,4001,5.75,73262.8,-16.19,-48.77,-48.97,0,*54
1513667025.74,4002,5.75,73264.8,-16.21,-48.77,-49.11,0,*53
1513667027.0,4003,5.75,73262.8,-16.21,-48.91,-49.11,0,*5A
1513667028.26,4004,5.75,73266.8,-16.19,-48.91,-49.11,0,*56
1513667029.53,4005,5.75,73266.5,-16.19,-48.77,-49.11,0,*5F
1513667030.79,4006,5.75,73266.5,-16.21,-48.91,-49.11,0,*5F
1513667032.06,4007,5.75,73268.0,-16.19,-48.77,-49.11,0,*5D
1513667033.32,4008,5.75,73266.0,-16.21,-48.77,-49.11,0,*59
1513667034.55,4009,5.75,73264.8,-16.21,-48.77,-48.97,0,*57
1513667035.8,4010,5.75,73266.3,-16.21,-48.77,-49.11,0,*50
1513667037.08,4011,5.75,73264.5,-16.19,-48.77,-49.11,0,*5A
1513667038.33,4012,5.75,73268.5,-16.21,-48.91,-49.11,0,*5A
1513667039.59,4013,5.75,73268.0,-16.21,-48.77,-49.11,0,*53
1513667040.85,4014,5.75,73268.3,-16.21,-48.91,-49.11,0,*5C
1513667042.11,4015,5.75,73266.8,-16.21,-48.69,-49.11,0,*5A
1513667043.37,4016,5.75,73264.8,-16.21,-48.77,-49.11,0,*56
1513667044.62,4017,5.75,73266.8,-16.21,-48.77,-49.19,0,*5F
1513667045.87,4018,5.75,73264.5,-16.21,-48.91,-49.19,0,*58
1513667047.12,4019,5.75,73266.5,-16.21,-48.91,-49.11,0,*51
1513667048.38,4020,5.75,73264.0,-16.21,-48.77,-49.11,0,*53
1513667049.67,4021,5.75,73264.0,-16.23,-48.77,-49.11,0,*50
1513667050.92,4022,5.75,73266.0,-16.27,-48.83,-49.19,0,*54
1513667052.21,4023,5.75,73270.8,-16.23,-48.77,-49.11,0,*52
1513667053.5,4024,5.75,73266.5,-16.23,-48.77,-49.11,0,*55
1513667054.76,4025,5.75,73266.3,-16.23,-48.97,-49.11,0,*5A
1513667056.05,4026,5.75,73266.5,-16.23,-48.77,-49.11,0,*57
1513667057.28,4027,5.75,73268.5,-16.21,-48.69,-48.97,0,*54
1513667058.51,4028,5.75,73264.3,-16.27,-48.83,-48.83,0,*5C
1513667059.76,4029,5.75,73264.3,-16.23,-48.77,-48.97,0,*57
1513667060.99,4030,5.75,73266.5,-16.27,-48.97,-49.25,0,*5D
1513667062.25,4031,5.75,73266.8,-16.27,-48.77,-49.05,0,*50
1513667063.54,4032,5.75,73264.5,-16.23,-48.91,-49.11,0,*5A
1513667064.77,4033,5.75,73266.0,-16.27,-48.83,-49.05,0,*59
1513667066.03,4034,5.75,73266.0,-16.27,-48.83,-49.19,0,*53
1513667067.31,4035,5.75,73266.8,-16.27,-48.77,-49.19,0,*59
1513667068.59,4036,5.75,73266.3,-16.27,-48.77,-49.19,0,*5A
1513667069.82,4037,5.75,73266.3,-16.23,-48.49,-48.97,0,*55
1513667071.1,4038,5.75,73266.5,-16.27,-48.77,-49.19,0,*54
1513667072.33,4039,5.75,73266.8,-16.27,-48.63,-49.05,0,*5D
1513667073.59,4040,5.75,73268.0,-16.27,-48.83,-49.19,0,*50
1513667074.84,4041,5.75,73270.8,-16.27,-48.83,-49.19,0,*51
1513667076.1,4042,5.75,73266.5,-16.27,-48.77,-49.05,0,*54
1513667077.33,4043,5.75,73268.8,-16.27,-48.63,-49.05,0,*50
1513667078.57,4044,5.75,73268.0,-16.27,-48.63,-49.05,0,*57
1513667079.77,4045,5.75,73266.0,-16.29,-48.63,-48.97,0,*52
1513667081.01,4046,5.75,73268.0,-16.27,-48.63,-48.83,0,*5A
1513667082.24,4047,5.75,73270.3,-16.27,-48.55,-48.97,0,*5B
1513667083.49,4048,5.75,73264.8,-16.23,-48.55,-48.91,0,*56
1513667084.75,4049,5.75,73266.3,-16.23,-48.55,-48.91,0,*57
1513667085.97,4050,5.75,73266.8,-16.27,-48.63,-48.97,0,*58
1513667087.2,4051,5.75,73266.0,-16.27,-48.55,-48.97,0,*5C
1513667088.41,4052,5.75,73266.8,-16.29,-48.63,-48.83,0,*51
1513667089.64,4053,5.75,73266.5,-16.29,-48.83,-49.19,0,*5C
1513667090.88,4054,5.75,73266.5,-16.29,-48.77,-49.05,0,*5D
1513667092.14,4055,5.75,73264.8,-16.29,-48.77,-49.19,0,*51
1513667093.35,4056,5.75,73266.0,-16.29,-48.83,-49.05,0,*54
1513667094.55,4057,5.75,73264.8,-16.29,-48.63,-48.97,0,*51
1513667095.75,4058,5.75,73266.8,-16.29,-48.63,-48.97,0,*5E
1513667096.96,4059,5.75,73266.8,-16.29,-48.63,-49.05,0,*55
1513667098.19,4060,5.75,73266.0,-16.29,-48.83,-49.19,0,*5C
1513667099.4,4061,5.75,73260.8,-16.29,-48.55,-49.05,0,*5B
1513667100.64,4062,5.75,73264.0,-16.29,-48.77,-48.97,0,*52
1513667101.9,4063,5.75,73266.0,-16.31,-48.83,-49.11,0,*5E
1513667103.15,4064,5.75,73264.3,-16.29,-48.77,-49.19,0,*53
1513667104.39,4065,5.75,73264.8,-16.31,-48.83,-49.25,0,*5F
1513667105.65,4066,5.75,73266.5,-16.31,-48.69,-48.97,0,*50
1513667106.93,4067,5.75,73264.5,-16.31,-48.91,-48.91,0,*50
1513667108.13,4068,5.75,73266.5,-16.29,-48.63,-48.97,0,*5D
1513667109.42,4069,5.75,73264.3,-16.31,-48.69,-48.91,0,*59
1513667110.66,4070,5.75,73264.8,-16.31,-48.63,-49.05,0,*57
1513667111.92,4071,5.75,73266.8,-16.31,-48.63,-48.91,0,*5A
1513667113.19,4072,5.75,73266.0,-16.31,-48.69,-49.05,0,*5F
1513667114.39,4073,5.75,73266.8,-16.29,-48.63,-48.97,0,*57
1513667115.66,4074,5.75,73268.5,-16.31,-48.63,-49.11,0,*56
1513667116.87,4075,5.75,73268.0,-16.29,-48.55,-48.83,0,*51
1513667118.1,4076,5.75,73266.8,-16.31,-48.63,-48.83,0,*5E
1513667119.32,4077,5.75,73266.5,-16.29,-48.63,-49.05,0,*59
1513667120.52,4078,5.75,73264.0,-16.29,-48.83,-49.05,0,*58
1513667121.76,4079,5.75,73266.8,-16.31,-48.63,-49.05,0,*5E
1513667123.0,4080,5.75,73264.8,-16.29,-48.63,-48.77,0,*55
1513667124.26,4081,5.75,73268.3,-16.31,-48.91,-49.25,0,*56
1513667125.46,4082,5.75,73266.3,-16.29,-48.55,-48.97,0,*5C
1513667126.75,4083,5.75,73268.3,-16.31,-48.69,-48.91,0,*5D
1513667128.04,4084,5.75,73266.5,-16.31,-48.69,-48.91,0,*5A
1513667129.28,4085,5.75,73270.5,-16.31,-48.63,-49.05,0,*5D
1513667130.51,4086,5.75,73266.3,-16.31,-48.83,-49.05,0,*50
1513667131.8,4087,5.75,73264.3,-16.31,-48.69,-48.91,0,*59
1513667133.07,4088,5.75,73264.5,-16.31,-48.63,-49.11,0,*55
1513667134.36,4089,5.75,73262.0,-16.31,-48.69,-48.91,0,*57
1513667135.57,4090,5.75,73264.3,-16.33,-48.63,-49.05,0,*5B
1513667136.83,4091,5.75,73266.8,-16.33,-48.69,-48.91,0,*5C
1513667138.04,4092,5.75,73266.8,-16.33,-48.63,-49.05,0,*59
1513667139.3,4093,5.75,73266.0,-16.31,-48.63,-48.91,0,*56
1513667140.5,4094,5.75,73264.0,-16.29,-48.63,-48.97,0,*5E
1513667141.77,4095,5.75,73266.5,-16.33,-48.91,-49.11,0,*56
1513667143.0,4096,5.75,73266.8,-16.31,-48.63,-49.05,0,*5F
1513667144.27,4097,5.75,73264.5,-16.31,-48.69,-49.05,0,*54
1513667145.57,4098,5.75,73268.5,-16.35,-48.69,-49.11,0,*5A
1513667146.78,4099,5.75,73264.8,-16.33,-48.63,-49.05,0,*52
1513667147.99,4100,5.75,73262.8,-16.33,-48.83,-49.05,0,*5D
1513667149.2,4101,5.75,73264.3,-16.33,-48.63,-49.05,0,*52
1513667150.46,4102,5.75,73266.0,-16.33,-48.69,-48.91,0,*57
1513667151.75,4103,5.75,73266.5,-16.35,-48.91,-49.11,0,*5E
1513667152.96,4104,5.75,73266.3,-16.33,-48.63,-48.83,0,*58
1513667154.22,4105,5.75,73268.3,-16.31,-48.41,-48.69,0,*5F
1513667155.43,4106,5.75,73266.3,-16.33,-48.49,-48.49,0,*54
1513667156.66,4107,5.75,73266.8,-16.33,-48.27,-48.49,0,*5D
1513667157.87,4108,5.75,73264.0,-16.33,-48.49,-48.63,0,*52
1513667159.11,4109,5.75,73264.3,-16.31,-48.49,-48.83,0,*5F
1513667160.32,4110,5.75,73266.8,-16.33,-48.41,-48.63,0,*53
1513667161.55,4111,5.75,73264.0,-16.33,-48.27,-48.49,0,*5A
1513667162.79,4112,5.75,73266.3,-16.33,-48.27,-48.63,0,*51
1513667164.0,4113,5.75,73264.3,-16.33,-48.49,-48.63,0,*58
1513667165.23,4114,5.75,73264.8,-16.31,-48.41,-48.49,0,*5D
1513667166.46,4115,5.75,73264.5,-16.33,-48.27,-48.41,0,*56
1513667167.69,4116,5.75,73266.3,-16.33,-48.27,-48.49,0,*5D
1513667168.9,4117,5.75,73264.5,-16.33,-48.21,-48.49,0,*5A
1513667170.17,4118,5.75,73264.5,-16.31,-48.27,-48.63,0,*59
1513667171.4,4119,5.75,73264.3,-16.31,-48.41,-48.63,0,*58
1513667172.64,4120,5.75,73266.5,-16.31,-48.49,-48.83,0,*54
1513667173.91,4121,5.75,73266.8,-16.31,-48.41,-48.69,0,*59
1513667175.14,4122,5.75,73264.5,-16.31,-48.49,-48.83,0,*56
1513667176.4,4123,5.75,73260.8,-16.31,-48.49,-48.69,0,*53
1513667177.67,4124,5.75,73266.5,-16.31,-48.49,-48.69,0,*54
1513667178.93,4125,5.75,73262.0,-16.31,-48.41,-48.69,0,*5D
1513667180.17,4126,5.75,73262.8,-16.31,-48.41,-48.63,0,*54
1513667181.41,4127,5.75,73266.8,-16.31,-48.41,-48.63,0,*55
1513667182.67,4128,5.75,73264.8,-16.31,-48.27,-48.63,0,*5A
1513667183.91,4129,5.75,73268.3,-16.31,-48.49,-48.49,0,*5B
1513667185.14,4130,5.75,73266.0,-16.31,-48.21,-48.49,0,*5D
1513667186.38,4131,5.75,73270.8,-16.31,-48.21,-48.21,0,*52
1513667187.62,4132,5.75,73264.8,-16.31,-48.21,-48.41,0,*57
1513667188.86,4133,5.75,73264.8,-16.31,-48.49,-48.63,0,*58
1513667190.09,4134,5.75,73264.5,-16.31,-48.41,-48.49,0,*5F
1513667191.36,4135,5.75,73266.5,-16.31,-48.41,-48.69,0,*5C
1513667192.57,4136,5.75,73266.8,-16.29,-48.41,-48.63,0,*5C
1513667193.8,4137,5.75,73268.3,-16.29,-48.35,-48.63,0,*5E
1513667195.02,4138,5.75,73264.3,-16.29,-48.41,-48.63,0,*52
1513667196.25,4139,5.75,73264.8,-16.29,-48.35,-48.63,0,*50
1513667197.51,4140,5.75,73266.0,-16.31,-48.49,-48.69,0,*56
1513667198.72,4141,5.75,73272.0,-16.29,-48.49,-48.83,0,*5A
1513667199.99,4142,5.75,73268.5,-16.31,-48.41,-48.77,0,*53
1513667201.22,4143,5.75,73266.5,-16.29,-48.35,-48.63,0,*5D
1513667202.46,4144,5.75,73268.3,-16.31,-48.41,-48.63,0,*50
1513667203.69,4145,5.75,73266.8,-16.31,-48.63,-48.83,0,*5F
1513667204.91,4146,5.75,73266.3,-16.29,-48.55,-48.83,0,*50
1513667206.14,4147,5.75,73264.8,-16.31,-48.49,-48.83,0,*55
1513667207.38,4148,5.75,73268.3,-16.31,-48.49,-48.83,0,*5A
1513667208.64,4149,5.75,73268.5,-16.31,-48.49,-48.69,0,*5F
1513667209.88,4150,5.75,73266.8,-16.31,-48.49,-48.83,0,*53
1513667211.11,4151,5.75,73268.0,-16.29,-48.41,-48.77,0,*58
1513667212.35,4152,5.75,73268.5,-16.31,-48.49,-48.83,0,*51
1513667213.61,4153,5.75,73268.8,-16.31,-48.63,-48.91,0,*5B
1513667214.82,4154,5.75,73266.5,-16.29,-48.41,-48.83,0,*56
1513667216.08,4155,5.75,73262.8,-16.31,-48.49,-48.69,0,*52
1513667217.32,4156,5.75,73270.0,-16.31,-48.49,-48.83,0,*55
1513667218.56,4157,5.75,73264.3,-16.29,-48.41,-48.77,0,*5E
1513667219.79,4158,5.75,73266.5,-16.31,-48.41,-48.83,0,*53
1513667221.05,4159,5.75,73268.8,-16.31,-48.63,-48.91,0,*51
1513667222.32,4160,5.75,73266.3,-16.31,-48.69,-49.05,0,*5D
1513667223.58,4161,5.75,73270.0,-16.31,-48.63,-48.91,0,*5A
1513667224.82,4162,5.75,73270.3,-16.31,-48.41,-48.63,0,*54
1513667226.05,4163,5.75,73268.5,-16.31,-48.49,-48.83,0,*53
1513667227.32,4164,5.75,73264.3,-16.31,-48.49,-48.69,0,*50
1513667228.53,4165,5.75,73268.8,-16.33,-48.63,-49.05,0,*50
1513667229.74,4166,5.75,73268.0,-16.33,-48.63,-48.83,0,*5C
1513667230.97,4167,5.75,73268.0,-16.31,-48.63,-48.83,0,*5F
1513667232.24,4168,5.75,73270.0,-16.31,-48.41,-48.69,0,*54
1513667233.5,4169,5.75,73264.5,-16.31,-48.49,-48.69,0,*5D
1513667234.76,4170,5.75,73266.3,-16.31,-48.49,-48.91,0,*52
1513667235.99,4171,5.75,73268.8,-16.33,-48.63,-48.91,0,*59
1513667237.25,4172,5.75,73268.0,-16.35,-48.69,-48.97,0,*50
1513667238.49,4173,5.75,73270.0,-16.33,-48.63,-48.69,0,*5C
1513667239.73,4174,5.75,73270.3,-16.33,-48.41,-48.69,0,*5B
1513667240.99,4175,5.75,73266.5,-16.35,-48.55,-48.91,0,*5E
1513667242.22,4176,5.75,73268.3,-16.35,-48.55,-48.97,0,*5B
1513667243.48,4177,5.75,73270.3,-16.35,-48.55,-48.91,0,*5C
1513667244.74,4178,5.75,73268.5,-16.35,-48.49,-48.91,0,*5E
1513667246.0,4179,5.75,73270.5,-16.35,-48.55,-48.69,0,*55
1513667247.24,4180,5.75,73270.5,-16.33,-48.41,-48.69,0,*50
1513667248.48,4181,5.75,73266.8,-16.33,-48.49,-48.69,0,*59
1513667249.74,4182,5.75,73264.3,-16.35,-48.55,-48.91,0,*56
1513667251.0,4183,5.75,73266.0,-16.35,-48.55,-48.77,0,*5F
1513667252.21,4184,5.75,73270.5,-16.33,-48.49,-48.83,0,*58
1513667253.47,4185,5.75,73270.5,-16.35,-48.49,-48.91,0,*5C
1513667254.68,4186,5.75,73268.0,-16.33,-48.49,-48.83,0,*5A
1513667255.92,4187,5.75,73268.5,-16.33,-48.49,-48.69,0,*5F
1513667257.18,4188,5.75,73270.3,-16.31,-48.41,-48.69,0,*5A
1513667258.44,4189,5.75,73268.0,-16.35,-48.55,-48.77,0,*55
1513667259.71,4190,5.75,73270.3,-16.35,-48.69,-48.97,0,*5C
1513667260.97,4191,5.75,73270.0,-16.35,-48.49,-48.77,0,*51
1513667262.18,4192,5.75,73270.0,-16.33,-48.41,-48.83,0,*57
1513667263.39,4193,5.75,73270.3,-16.33,-48.49,-48.83,0,*5E
1513667264.65,4194,5.75,73272.8,-16.35,-48.55,-48.91,0,*51
1513667265.91,4195,5.75,73274.0,-16.35,-48.49,-48.77,0,*55
1513667267.18,4196,5.75,73268.8,-16.35,-48.55,-48.77,0,*5B
1513667268.44,4197,5.75,73270.5,-16.35,-48.49,-48.69,0,*58
1513667269.73,4198,5.75,73272.8,-16.35,-48.35,-48.69,0,*5C
1513667270.99,4199,5.75,73270.3,-16.35,-48.49,-48.77,0,*59
1513667272.25,4200,5.75,73268.3,-16.35,-48.49,-48.77,0,*5A
1513667273.54,4201,5.75,73266.3,-16.35,-48.35,-48.69,0,*5F
1513667274.8,4202,5.75,73268.5,-16.33,-48.27,-48.69,0,*59
1513667276.06,4203,5.75,73268.5,-16.35,-48.49,-48.77,0,*59
1513667277.32,4204,5.75,73268.3,-16.35,-48.49,-48.77,0,*5E
1513667278.59,4205,5.75,73264.8,-16.35,-48.49,-48.77,0,*5F
1513667279.85,4206,5.75,73268.0,-16.35,-48.55,-48.91,0,*59
1513667281.11,4207,5.75,73270.5,-16.35,-48.49,-48.77,0,*5D
1513667282.37,4208,5.75,73272.0,-16.35,-48.49,-48.91,0,*5A
1513667283.58,4209,5.75,73270.0,-16.37,-48.49,-48.55,0,*51
1513667284.82,4210,5.75,73268.8,-16.37,-48.49,-48.69,0,*56
1513667286.06,4211,5.75,73268.5,-16.37,-48.49,-48.69,0,*57
1513667287.3,4212,5.75,73268.3,-16.35,-48.49,-48.55,0,*59
1513667288.54,4213,5.75,73270.8,-16.35,-48.49,-48.55,0,*58
1513667289.8,4214,5.75,73272.0,-16.35,-48.27,-48.49,0,*5A
1513667291.05,4215,5.75,73270.8,-16.35,-48.27,-48.49,0,*5B
1513667292.29,4216,5.75,73270.0,-16.37,-48.27,-48.55,0,*57
1513667293.55,4217,5.75,73270.5,-16.37,-48.27,-48.69,0,*59
1513667294.77,4218,5.75,73268.8,-16.37,-48.07,-48.49,0,*56
1513667296.0,4219,5.75,73268.8,-16.37,-48.27,-48.49,0,*55
1513667297.25,4220,5.75,73268.3,-16.37,-48.35,-48.69,0,*5E
1513667298.49,4221,5.75,73268.8,-16.37,-48.49,-48.69,0,*54
1513667299.72,4222,5.75,73270.8,-16.37,-48.35,-48.55,0,*53
1513667300.96,4223,5.75,73264.3,-16.37,-48.21,-48.27,0,*52
1513667302.22,4224,5.75,73266.5,-16.37,-48.27,-48.69,0,*59
1513667303.48,4225,5.75,73268.0,-16.37,-48.27,-48.27,0,*52
1513667304.74,4226,5.75,73266.0,-16.37,-48.35,-48.69,0,*58
1513667305.98,4227,5.75,73266.0,-16.39,-48.55,-48.83,0,*55
1513667307.22,4228,5.75,73266.0,-16.37,-48.49,-48.77,0,*52